Tampa, FL

8:54 PM EST on December 11, 2017 (GMT -0500)
Tampa International

Weather History for KTPA - April, 2014

Change the Weather History Date:

Monday, April 21, 2014

  Actual Average Record
Temperature  
Mean Temperature 69 °F 73 °F  
Max Temperature 75 °F 82 °F 91 °F (1925)
Min Temperature 62 °F 64 °F 48 °F (1953)
Degree Days  
Heating Degree Days 0 0  
Month to date heating degree days 0 9  
Since 1 July heating degree days 444 536  
Cooling Degree Days 4 8  
Month to date cooling degree days 134 138  
Year to date cooling degree days 316 377  
Growing Degree Days 18 (Base 50)    
Moisture  
Dew Point 56 °F    
Average Humidity 71    
Maximum Humidity 84    
Minimum Humidity 57    
Precipitation  
Precipitation 0.00 in 0.06 in 2.46 in (1959)
Month to date precipitation 0.89 1.50  
Year to date precipitation 10.79 9.57  
Sea Level Pressure  
Sea Level Pressure 30.06 in    
Wind  
Wind Speed 6 mph (NNE)    
Max Wind Speed 12 mph    
Max Gust Speed 20 mph    
Visibility 10 miles    
Events      
T = Trace of Precipitation, MM = Missing Value Source: NWS Daily Summary

Daily Weather History Graph

Daily Weather History Graph

Search for Another Location

Airport or City:

Trip Planner

Search our weather history database for the weather conditions in past years. The results will help you decide how hot, cold, wet, or windy it might be!

Date:

Astronomy

Apr. 21, 2014 Rise Set
Actual Time 6:59 AM EDT 7:58 PM EDT
Civil Twilight 6:34 AM EDT 8:23 PM EDT
Nautical Twilight 6:06 AM EDT 8:51 PM EDT
Astronomical Twilight 5:36 AM EDT 9:21 PM EDT
Moon 1:20 AM EDT (4/21) 12:30 PM EDT (4/21)
Length of Visible Light 13h 48m
Length of Day
12h 59m
Waning Gibbous, 58% of the Moon is Illuminated
Apr 21
Waning Gibbous
Apr 22
Last Quarter
Apr 29
New
May 6
First Quarter
May 14
Full

Hourly Weather History & Observations

Time (EDT) Temp. Dew Point Humidity Pressure Visibility Wind Dir Wind Speed Gust Speed Precip Events Conditions
12:32 AM 63.0 °F 55.9 °F 78% 30.10 in 10.0 mi NNE 9.2 mph - N/A   Mostly Cloudy
12:53 AM 63.0 °F 55.9 °F 78% 30.10 in 10.0 mi NE 6.9 mph - N/A   Mostly Cloudy
1:53 AM 63.0 °F 55.0 °F 75% 30.09 in 10.0 mi NNE 6.9 mph - N/A   Overcast
2:53 AM 63.0 °F 55.0 °F 75% 30.06 in 10.0 mi NNE 3.5 mph - N/A   Overcast
3:53 AM 63.0 °F 55.9 °F 78% 30.06 in 10.0 mi NE 6.9 mph - N/A   Overcast
4:53 AM 62.1 °F 55.9 °F 80% 30.07 in 10.0 mi NNE 5.8 mph - N/A   Overcast
5:53 AM 63.0 °F 55.0 °F 75% 30.06 in 10.0 mi NNE 5.8 mph - N/A   Overcast
6:53 AM 63.0 °F 55.0 °F 75% 30.08 in 10.0 mi NNE 5.8 mph - N/A   Overcast
7:53 AM 62.1 °F 54.0 °F 75% 30.10 in 10.0 mi NNE 6.9 mph - N/A   Overcast
8:53 AM 63.0 °F 54.0 °F 72% 30.10 in 10.0 mi NNE 5.8 mph - N/A   Overcast
9:53 AM 64.0 °F 55.0 °F 73% 30.11 in 10.0 mi North 9.2 mph - N/A   Overcast
10:53 AM 64.9 °F 55.9 °F 73% 30.12 in 10.0 mi North 6.9 mph - N/A   Overcast
11:53 AM 66.9 °F 55.9 °F 68% 30.10 in 10.0 mi NNE 6.9 mph - N/A   Overcast
12:53 PM 68.0 °F 55.9 °F 65% 30.09 in 10.0 mi Variable 3.5 mph - N/A   Overcast
1:53 PM 71.1 °F 57.0 °F 61% 30.07 in 10.0 mi NNE 8.1 mph - N/A   Mostly Cloudy
2:53 PM 72.0 °F 57.0 °F 59% 30.04 in 10.0 mi NE 8.1 mph - N/A   Mostly Cloudy
3:53 PM 73.9 °F 57.9 °F 57% 30.02 in 10.0 mi North 8.1 mph - N/A   Mostly Cloudy
4:53 PM 73.0 °F 57.0 °F 57% 30.00 in 10.0 mi ENE 5.8 mph - N/A   Overcast
5:53 PM 73.0 °F 57.9 °F 59% 30.00 in 10.0 mi North 5.8 mph - N/A   Mostly Cloudy
6:53 PM 72.0 °F 57.0 °F 59% 30.00 in 10.0 mi NNE 8.1 mph - N/A   Scattered Clouds
7:53 PM 70.0 °F 57.0 °F 63% 30.00 in 10.0 mi NE 6.9 mph - N/A   Scattered Clouds
8:53 PM 69.1 °F 57.9 °F 68% 30.01 in 10.0 mi Variable 3.5 mph - N/A   Mostly Cloudy
9:53 PM 66.9 °F 57.9 °F 73% 30.02 in 10.0 mi North 4.6 mph - N/A   Scattered Clouds
10:53 PM 64.9 °F 57.9 °F 78% 30.03 in 10.0 mi NW 5.8 mph - N/A   Scattered Clouds
11:53 PM 64.0 °F 59.0 °F 84% 30.02 in 10.0 mi Calm Calm - N/A   Partly Cloudy